Weather History for Sarasota, FL

Change the Weather History Date:

Sunday, February 9, 2014

  Actual Average Record
Temperature  
Mean Temperature 66 °F 63 °F  
Max Temperature 74 °F 73 °F 86 °F (1994)
Min Temperature 57 °F 53 °F 28 °F (1995)
Degree Days  
Heating Degree Days 0 4  
Month to date heating degree days 4 36  
Since 1 July heating degree days 257 356  
Cooling Degree Days 1 2  
Month to date cooling degree days 42 14  
Year to date cooling degree days 73 66  
Growing Degree Days 15 (Base 50)    
Moisture  
Dew Point 54 °F    
Average Humidity 75    
Maximum Humidity 93    
Minimum Humidity 46    
Precipitation  
Precipitation 0.00 in 0.05 in 2.55 in (1981)
Month to date precipitation 0.01 0.39  
Year to date precipitation 2.11 2.88  
Sea Level Pressure  
Sea Level Pressure 30.08 in    
Wind  
Wind Speed 7 mph (NNE)    
Max Wind Speed 15 mph    
Max Gust Speed 19 mph    
Visibility 10 miles    
Events      
T = Trace of Precipitation, MM = Missing Value Source: NWS Daily Summary

Daily Weather History Graph

Daily Weather History Graph

Search for Another Location

Airport:

Trip Planner

Search our weather history database for the weather conditions in past years. The results will help you decide how hot, cold, wet, or windy it might be!

Date:

Astronomy

Feb. 09, 2014 Rise Set
Actual Time 7:11 AM EST 6:17 PM EST
Civil Twilight 6:47 AM EST 6:41 PM EST
Nautical Twilight 6:19 AM EST 7:09 PM EST
Astronomical Twilight 5:52 AM EST 7:36 PM EST
Moon 2:05 PM EST (2/9) 3:07 AM EST (2/9)
Length of Visible Light 11h 54m
Length of Day
11h 06m
Waxing Gibbous, 77% of the Moon is Illuminated
Feb 9
Waxing Gibbous
Feb 14
Full
Feb 22
Last Quarter
Mar 1
New
Mar 8
First Quarter

Hourly Weather History & Observations

Time (EST) Temp. Dew Point Humidity Pressure Visibility Wind Dir Wind Speed Gust Speed Precip Events Conditions
12:53 AM 59.0 °F 55.9 °F 90% 30.09 in 7.0 mi NE 6.9 mph - N/A   Overcast
1:53 AM 59.0 °F 55.9 °F 90% 30.08 in 8.0 mi NE 4.6 mph - N/A   Overcast
2:53 AM 57.9 °F 55.9 °F 93% 30.07 in 8.0 mi NE 5.8 mph - N/A   Overcast
3:53 AM 59.0 °F 55.9 °F 90% 30.05 in 9.0 mi NNE 8.1 mph - N/A   Overcast
4:53 AM 57.9 °F 55.9 °F 93% 30.05 in 7.0 mi NNE 4.6 mph - N/A   Overcast
5:53 AM 57.9 °F 55.0 °F 90% 30.06 in 9.0 mi NNE 8.1 mph - N/A   Overcast
6:53 AM 57.9 °F 54.0 °F 87% 30.07 in 10.0 mi NNE 6.9 mph - N/A   Overcast
7:53 AM 57.9 °F 55.0 °F 90% 30.09 in 10.0 mi NNE 6.9 mph - N/A   Overcast
8:53 AM 60.1 °F 55.0 °F 83% 30.11 in 10.0 mi NE 6.9 mph - N/A   Overcast
9:53 AM 61.0 °F 55.0 °F 81% 30.14 in 10.0 mi NNE 6.9 mph - N/A   Overcast
10:53 AM 64.0 °F 55.9 °F 75% 30.14 in 10.0 mi NNE 6.9 mph - N/A   Overcast
11:07 AM 64.0 °F 55.9 °F 75% 30.14 in 10.0 mi NE 5.8 mph - N/A   Overcast
11:49 AM 66.2 °F 57.2 °F 73% 30.12 in 10.0 mi NNE 6.9 mph - N/A   Overcast
11:53 AM 66.9 °F 57.0 °F 70% 30.12 in 10.0 mi North 5.8 mph - N/A   Mostly Cloudy
12:17 PM 68.0 °F 57.0 °F 68% 30.11 in 10.0 mi North 4.6 mph - N/A   Scattered Clouds
12:53 PM 71.1 °F 57.0 °F 61% 30.09 in 10.0 mi Variable 5.8 mph - N/A   Partly Cloudy
1:53 PM 73.0 °F 55.9 °F 55% 30.06 in 10.0 mi NNW 9.2 mph - N/A   Clear
2:53 PM 73.0 °F 52.0 °F 48% 30.05 in 10.0 mi North 12.7 mph 17.3 mph N/A   Clear
3:53 PM 72.0 °F 51.1 °F 48% 30.04 in 10.0 mi North 12.7 mph - N/A   Clear
4:53 PM 72.0 °F 52.0 °F 49% 30.05 in 10.0 mi North 9.2 mph - N/A   Clear
5:53 PM 66.9 °F 53.1 °F 61% 30.06 in 10.0 mi NNW 6.9 mph - N/A   Clear
6:53 PM 61.0 °F 52.0 °F 72% 30.06 in 10.0 mi NW 4.6 mph - N/A   Clear
7:53 PM 59.0 °F 52.0 °F 78% 30.07 in 10.0 mi NNW 5.8 mph - N/A   Clear
8:53 PM 60.1 °F 50.0 °F 69% 30.08 in 10.0 mi North 6.9 mph - N/A   Clear
9:53 PM 59.0 °F 48.9 °F 69% 30.09 in 10.0 mi North 3.5 mph - N/A   Clear
10:53 PM 57.9 °F 52.0 °F 81% 30.09 in 10.0 mi NNE 6.9 mph - N/A   Clear
11:53 PM 57.0 °F 52.0 °F 83% 30.09 in 10.0 mi NNE 5.8 mph - N/A   Clear